[[{"header":{"parameterUnit":"m.s-1","parameterCategory":2,"la1":30.2992,"la2":30.254,"lo1":-89.0895,"lo2":-89.0443,"dy":0.0025,"dx":0.0025,"nx":19,"ny":19,"refTime":"2026-05-05T09:00:00:Z","depth":"0","parameterNumber":2,"parameterNumberName":"U-component_of_CURRENTS"},"data":[0,0,0,-0.21,-0.2101,-0.2115,-0.2115,-0.2098,-0.2098,0,0,0,0,0,0,0,0,0,0,0,-0.2085,-0.2085,-0.21,-0.2101,-0.2115,-0.2115,-0.2098,-0.2098,0,0,0,0,0,0,0,0,0,0,0,-0.2085,-0.2085,-0.2085,-0.2101,-0.2115,-0.2115,-0.2098,-0.2095,0,0,0,0,0,0,0,0,0,0,-0.2085,-0.2076,-0.2085,-0.2085,-0.2101,-0.2115,-0.2115,-0.2095,-0.2095,-0.2084,0,-0.2083,0,-0.2097,-0.2096,-0.2096,0,0,0,-0.2094,-0.2076,-0.2085,-0.2085,-0.2101,-0.2115,-0.2107,-0.2095,-0.2095,-0.2083,-0.2083,-0.2083,-0.2096,-0.2096,-0.2096,-0.2104,-0.2104,0,0,-0.2094,-0.2083,-0.2085,-0.2085,-0.2101,-0.2106,-0.2107,-0.2095,-0.209,-0.2083,-0.2083,-0.2096,-0.2096,-0.2096,-0.2104,-0.2104,0,0,0,-0.2096,-0.2082,-0.2092,-0.2085,-0.2094,-0.2107,-0.2108,-0.209,-0.2095,-0.2083,-0.2096,-0.2096,-0.2096,-0.2103,-0.2104,-0.2178,0,0,0,-0.2095,-0.2084,-0.2091,-0.2084,-0.2094,-0.2097,-0.2103,-0.2095,-0.2095,-0.2096,-0.2096,-0.2096,-0.2103,-0.2104,-0.2176,-0.2219,0,0,0,-0.2085,-0.2083,-0.2085,-0.2084,-0.2095,-0.2098,-0.2101,-0.2095,-0.2103,-0.2096,-0.2096,-0.2103,-0.2103,-0.2174,-0.2215,-0.2113,0,0,0,-0.2074,-0.2087,-0.2084,-0.2105,-0.2095,-0.2127,-0.2102,-0.2117,-0.2116,-0.2096,-0.2103,-0.2104,-0.2173,-0.2212,-0.2112,-0.1884,-0.1869,0,0,-0.209,-0.2088,-0.2105,-0.2103,-0.2142,-0.2125,-0.2166,-0.215,-0.2118,-0.2103,-0.2103,-0.2177,-0.2214,-0.2113,-0.1917,-0.19,0,0,0,-0.2111,-0.2117,-0.213,-0.2148,-0.2168,-0.2198,-0.2181,-0.2181,-0.2178,-0.2121,-0.2167,-0.2188,-0.2121,-0.1983,-0.197,-0.188,-0.2106,-0.2106,-0.2106,-0.2107,-0.2131,-0.2163,-0.2193,-0.2218,-0.2243,-0.2269,-0.2261,-0.2216,-0.2228,-0.2242,-0.2212,-0.2069,-0.2056,-0.1969,-0.2227,-0.2227,-0.2227,-0.2227,-0.2129,-0.2155,-0.219,-0.2233,-0.2275,-0.231,-0.2351,-0.2341,-0.2315,-0.231,-0.2238,-0.2062,-0.2045,-0.1957,-0.2232,-0.2231,-0.2231,-0.223,-0.223,-0.2113,-0.214,-0.2166,-0.2246,-0.2321,-0.2371,-0.2357,-0.2403,-0.2366,-0.2354,-0.206,-0.2056,-0.1975,-0.2252,-0.2252,-0.2252,-0.2252,-0.2252,-0.2251,-0.2101,-0.2135,-0.2163,-0.2279,-0.2285,-0.2348,-0.2366,-0.2293,-0.2164,-0.2115,-0.2111,-0.1941,-0.2217,-0.2212,-0.2248,-0.2249,-0.2249,-0.2249,-0.225,-0.211,-0.2147,-0.2106,-0.2109,-0.2152,-0.2049,-0.2155,-0.1957,-0.1899,-0.1784,-0.1694,-0.1943,-0.187,-0.1877,-0.1861,-0.1804,-0.1804,-0.1804,-0.1804,-0.2134,-0.2154,-0.198,-0.1861,-0.1844,-0.1853,-0.1584,-0.1561,-0.1485,-0.1399,-0.1468,-0.1434,-0.1456,-0.136,-0.1379,-0.1353,-0.1169,-0.1169,-0.1168,-0.217,-0.2044,-0.1845,-0.1687,-0.1609,-0.1535,-0.1252,-0.1136,-0.1075,-0.1146,-0.1397,-0.1424,-0.1387,-0.1428,-0.129,-0.1324,-0.1287,0,0]},{"header":{"parameterUnit":"m.s-1","parameterCategory":2,"la1":30.2992,"la2":30.254,"lo1":-89.0895,"lo2":-89.0443,"dy":0.0025,"dx":0.0025,"nx":19,"ny":19,"refTime":"2026-05-05T09:00:00:Z","depth":"0","parameterNumber":3,"parameterNumberName":"V-component_of_CURRENTS"},"data":[0,0,0,-0.0345,-0.0344,-0.0279,-0.0279,-0.0155,-0.0153,0,0,0,0,0,0,0,0,0,0,0,-0.0368,-0.0368,-0.0345,-0.0344,-0.0279,-0.0279,-0.0155,-0.0153,0,0,0,0,0,0,0,0,0,0,0,-0.0368,-0.0368,-0.0368,-0.0343,-0.0279,-0.0279,-0.0155,-0.0211,0,0,0,0,0,0,0,0,0,0,-0.0278,-0.0314,-0.0368,-0.0368,-0.0343,-0.0279,-0.0279,-0.0214,-0.0208,-0.0175,0,-0.0175,0,-0.0164,-0.0145,-0.0145,0,0,0,-0.0332,-0.032,-0.03,-0.0368,-0.0343,-0.028,-0.0305,-0.0211,-0.0203,-0.0167,-0.0173,-0.0168,-0.0162,-0.0144,-0.0144,-0.0046,-0.0046,0,0,-0.0335,-0.0354,-0.0305,-0.0296,-0.0337,-0.0307,-0.0303,-0.0207,-0.0204,-0.0173,-0.0166,-0.016,-0.0144,-0.0143,-0.0047,-0.0046,0,0,0,-0.0354,-0.0357,-0.034,-0.0301,-0.0294,-0.0306,-0.0301,-0.0208,-0.0202,-0.0164,-0.0159,-0.0143,-0.0141,-0.0047,-0.0046,-0.0102,0,0,0,-0.0355,-0.0368,-0.0342,-0.0351,-0.0297,-0.0257,-0.0305,-0.0209,-0.0198,-0.0159,-0.0143,-0.014,-0.0047,-0.0047,-0.0101,-0.0068,0,0,0,-0.0369,-0.0369,-0.0365,-0.0353,-0.033,-0.0259,-0.0247,-0.0206,-0.0194,-0.0145,-0.014,-0.0047,-0.0047,-0.01,-0.0068,0.0117,0,0,0,-0.0385,-0.0408,-0.0365,-0.0388,-0.033,-0.0313,-0.0247,-0.0223,-0.0189,-0.0142,-0.0047,-0.0046,-0.01,-0.0068,0.0114,0.0178,0.0197,0,0,-0.0429,-0.0414,-0.0428,-0.0389,-0.0398,-0.032,-0.03,-0.0226,-0.0166,-0.0074,-0.0071,-0.0102,-0.0068,0.0116,0.0198,0.0217,0,0,0,-0.0452,-0.0461,-0.0458,-0.0448,-0.0414,-0.0353,-0.0286,-0.0227,-0.014,-0.0145,-0.0078,-0.0053,0.0065,0.0096,0.0111,0.0232,-0.0045,-0.0045,-0.0045,-0.0527,-0.0508,-0.0524,-0.0491,-0.0465,-0.0372,-0.0294,-0.0191,-0.0169,-0.0129,-0.0085,0.0039,0.0064,0.0078,0.0198,-0.0098,-0.0098,-0.0098,-0.0098,-0.0593,-0.06,-0.0558,-0.0569,-0.0491,-0.045,-0.0283,-0.0227,-0.0034,-0.0089,0.0029,0.005,0.0092,0.0214,-0.0102,-0.0101,-0.0101,-0.01,-0.01,-0.0645,-0.0642,-0.064,-0.0613,-0.054,-0.0444,-0.024,-0.0144,-0.0032,0.0052,0.0221,0.0223,0.0335,0.0138,0.0139,0.014,0.0141,0.0141,0.0142,-0.0694,-0.0685,-0.0626,-0.0625,-0.0523,-0.0387,-0.0174,-0.0011,0.0183,0.0239,0.0241,0.0398,0.0116,0.0112,0.0156,0.0153,0.0152,0.015,0.0149,-0.072,-0.0681,-0.0554,-0.0457,-0.0257,-0.0035,0.0062,0.0315,0.0454,0.0564,0.0639,0.0389,0.0464,0.0452,0.0459,0.0592,0.0592,0.0592,0.0592,-0.0674,-0.0682,-0.0356,-0.0123,0.0055,0.0202,0.0501,0.0576,0.0739,0.0845,0.0887,0.0787,0.0764,0.0851,0.0829,0.0842,0.107,0.107,0.1071,-0.0597,-0.0472,-0.0195,0.0018,0.0258,0.0475,0.0736,0.0797,0.0951,0.1101,0.1051,0.1031,0.0884,0.0838,0.0964,0.0925,0.0941,0,0]}],[{"header":{"parameterUnit":"m.s-1","parameterCategory":2,"la1":30.2992,"la2":30.254,"lo1":-89.0895,"lo2":-89.0443,"dy":0.0025,"dx":0.0025,"nx":19,"ny":19,"refTime":"2026-05-05T09:00:00:Z","depth":"2","parameterNumber":2,"parameterNumberName":"U-component_of_CURRENTS"},"data":[0,0,0,-0.205,-0.205,-0.2068,-0.2068,-0.2051,-0.2051,0,0,0,0,0,0,0,0,0,0,0,-0.2034,-0.2035,-0.205,-0.205,-0.2068,-0.2068,-0.2051,-0.2051,0,0,0,0,0,0,0,0,0,0,0,-0.2034,-0.2035,-0.2035,-0.205,-0.2068,-0.2068,-0.2051,-0.2046,0,0,0,0,0,0,0,0,0,0,-0.2033,-0.2025,-0.2035,-0.2035,-0.2051,-0.2068,-0.2068,-0.2046,-0.2046,-0.2034,0,-0.2035,0,-0.2048,-0.2049,-0.2049,0,0,0,-0.2044,-0.2025,-0.2034,-0.2035,-0.2051,-0.2068,-0.2058,-0.2046,-0.2047,-0.2034,-0.2035,-0.2035,-0.2048,-0.2049,-0.2049,-0.2054,-0.2054,0,0,-0.2043,-0.2033,-0.2034,-0.2034,-0.2053,-0.2058,-0.2059,-0.2047,-0.2042,-0.2035,-0.2035,-0.2048,-0.2049,-0.2049,-0.2054,-0.2054,0,0,0,-0.2045,-0.2032,-0.2042,-0.2034,-0.2044,-0.2058,-0.206,-0.2042,-0.2047,-0.2035,-0.2047,-0.2049,-0.2048,-0.2053,-0.2054,-0.2122,0,0,0,-0.2044,-0.2034,-0.2042,-0.2035,-0.2045,-0.2049,-0.2055,-0.2048,-0.2047,-0.2048,-0.2049,-0.2048,-0.2053,-0.2054,-0.212,-0.2163,0,0,0,-0.2034,-0.2033,-0.2035,-0.2034,-0.2047,-0.205,-0.2054,-0.2048,-0.2055,-0.2049,-0.2048,-0.2053,-0.2054,-0.2118,-0.2159,-0.2072,0,0,0,-0.2023,-0.2037,-0.2034,-0.2055,-0.2047,-0.2078,-0.2054,-0.207,-0.2069,-0.2049,-0.2053,-0.2054,-0.2117,-0.2156,-0.2071,-0.1865,-0.1851,0,0,-0.2039,-0.2038,-0.2054,-0.2053,-0.2091,-0.2076,-0.2115,-0.21,-0.207,-0.2052,-0.2053,-0.2121,-0.2158,-0.2072,-0.1895,-0.188,0,0,0,-0.2059,-0.2066,-0.2078,-0.2097,-0.2116,-0.2143,-0.2129,-0.2129,-0.2124,-0.2073,-0.2112,-0.2134,-0.2076,-0.195,-0.1939,-0.2056,-0.2056,-0.2056,-0.2056,-0.2057,-0.2079,-0.2109,-0.2137,-0.216,-0.2185,-0.2208,-0.2199,-0.216,-0.217,-0.2183,-0.2161,-0.203,-0.2019,-0.2167,-0.2167,-0.2167,-0.2168,-0.2168,-0.2077,-0.2098,-0.2131,-0.217,-0.2207,-0.224,-0.2279,-0.2272,-0.2253,-0.2245,-0.2183,-0.2023,-0.201,-0.2173,-0.2172,-0.2171,-0.2171,-0.217,-0.217,-0.206,-0.2081,-0.2107,-0.2176,-0.2243,-0.2291,-0.2291,-0.2331,-0.23,-0.2293,-0.2031,-0.2027,-0.2166,-0.2205,-0.2204,-0.2204,-0.2204,-0.2204,-0.2204,-0.204,-0.2072,-0.2103,-0.22,-0.2212,-0.2272,-0.2302,-0.2242,-0.2125,-0.2085,-0.2081,-0.2171,-0.217,-0.2165,-0.2201,-0.2202,-0.2202,-0.2202,-0.2202,-0.2029,-0.2068,-0.2067,-0.2077,-0.2124,-0.2101,-0.2146,-0.1968,-0.1897,-0.1787,-0.1924,-0.1932,-0.1867,-0.1873,-0.1859,-0.1814,-0.1814,-0.1814,-0.1814,-0.2033,-0.2056,-0.1992,-0.1934,-0.1935,-0.1982,-0.1747,-0.1596,-0.1564,-0.1533,-0.1546,-0.1515,-0.1536,-0.1452,-0.1468,-0.1446,-0.1293,-0.1293,-0.1292,-0.2043,-0.1993,-0.1898,-0.1836,-0.18,-0.1801,-0.157,-0.1197,-0.1055,-0.1279,-0.1529,-0.1765,-0.1753,-0.1773,-0.1671,-0.1686,-0.1661,0,0]},{"header":{"parameterUnit":"m.s-1","parameterCategory":2,"la1":30.2992,"la2":30.254,"lo1":-89.0895,"lo2":-89.0443,"dy":0.0025,"dx":0.0025,"nx":19,"ny":19,"refTime":"2026-05-05T09:00:00:Z","depth":"2","parameterNumber":3,"parameterNumberName":"V-component_of_CURRENTS"},"data":[0,0,0,-0.0405,-0.0404,-0.0342,-0.0342,-0.0226,-0.0225,0,0,0,0,0,0,0,0,0,0,0,-0.0427,-0.0427,-0.0405,-0.0404,-0.0343,-0.0342,-0.0226,-0.0225,0,0,0,0,0,0,0,0,0,0,0,-0.0427,-0.0427,-0.0427,-0.0404,-0.0343,-0.0342,-0.0226,-0.0279,0,0,0,0,0,0,0,0,0,0,-0.0342,-0.0376,-0.0427,-0.0427,-0.0403,-0.0343,-0.0342,-0.0282,-0.0276,-0.0246,0,-0.0245,0,-0.0235,-0.0217,-0.0216,0,0,0,-0.0393,-0.0382,-0.0363,-0.0427,-0.0403,-0.0343,-0.0367,-0.0279,-0.0272,-0.0237,-0.0243,-0.0239,-0.0233,-0.0216,-0.0216,-0.0121,-0.0121,0,0,-0.0396,-0.0414,-0.0368,-0.0359,-0.0396,-0.0369,-0.0365,-0.0275,-0.0272,-0.0243,-0.0236,-0.0231,-0.0215,-0.0214,-0.0121,-0.0121,0,0,0,-0.0413,-0.0416,-0.04,-0.0363,-0.0357,-0.0368,-0.0363,-0.0276,-0.027,-0.0235,-0.0229,-0.0215,-0.0213,-0.0121,-0.0121,-0.0188,0,0,0,-0.0415,-0.0427,-0.0402,-0.0411,-0.0359,-0.0322,-0.0367,-0.0277,-0.0266,-0.023,-0.0215,-0.0212,-0.0122,-0.0121,-0.0186,-0.0176,0,0,0,-0.0428,-0.0428,-0.0424,-0.0412,-0.039,-0.0324,-0.0312,-0.0274,-0.0263,-0.0216,-0.0212,-0.0122,-0.0121,-0.0185,-0.0175,-0.0033,0,0,0,-0.0443,-0.0462,-0.0424,-0.0442,-0.0391,-0.0372,-0.0313,-0.0289,-0.0256,-0.0214,-0.0122,-0.0121,-0.0185,-0.0174,-0.0035,-0.0099,-0.0096,0,0,-0.048,-0.0467,-0.0478,-0.0443,-0.045,-0.0379,-0.0362,-0.0295,-0.0234,-0.0147,-0.0145,-0.0187,-0.0175,-0.0034,-0.0075,-0.0073,0,0,0,-0.0498,-0.0507,-0.0503,-0.0495,-0.0462,-0.0417,-0.0349,-0.0297,-0.0218,-0.0213,-0.0159,-0.0148,-0.0057,-0.01,-0.0098,-0.0119,-0.0119,-0.0119,-0.0119,-0.0567,-0.055,-0.0568,-0.054,-0.0517,-0.0437,-0.0379,-0.0286,-0.0247,-0.0213,-0.0185,-0.0096,-0.0149,-0.0146,-0.0183,-0.0183,-0.0184,-0.0184,-0.0184,-0.0632,-0.0649,-0.0612,-0.0626,-0.0565,-0.0532,-0.0393,-0.0338,-0.0176,-0.0199,-0.0107,-0.0148,-0.0148,-0.0189,-0.0188,-0.0187,-0.0187,-0.0186,-0.0186,-0.0686,-0.0693,-0.069,-0.0686,-0.0638,-0.0556,-0.0415,-0.0314,-0.0198,-0.0135,-0.0057,-0.0057,-0.0075,-0.0055,-0.0055,-0.0054,-0.0054,-0.0053,-0.0053,-0.0748,-0.0742,-0.0729,-0.0729,-0.0669,-0.0579,-0.0393,-0.0277,-0.0137,-0.008,-0.008,-0.0049,-0.0053,-0.0061,-0.0043,-0.0045,-0.0046,-0.0047,-0.0048,-0.082,-0.0791,-0.0787,-0.0735,-0.0648,-0.0643,-0.0389,-0.0236,-0.0052,-0.0002,-0.001,-0.0014,0.0041,0.0038,0.0035,0.0079,0.0079,0.0079,0.0078,-0.084,-0.0842,-0.0828,-0.079,-0.0729,-0.0685,-0.0602,-0.0389,-0.0147,-0.0057,-0.0051,-0.0171,-0.0173,-0.0134,-0.0133,-0.0141,-0.0143,-0.0144,-0.0144,-0.0854,-0.0858,-0.0895,-0.0927,-0.0835,-0.0846,-0.0918,-0.0623,-0.023,-0.0153,-0.0097,0.0065,-0.0102,-0.0109,-0.0042,-0.0044,-0.0054,0,0]}],[{"header":{"parameterUnit":"m.s-1","parameterCategory":2,"la1":30.2992,"la2":30.254,"lo1":-89.0895,"lo2":-89.0443,"dy":0.0025,"dx":0.0025,"nx":19,"ny":19,"refTime":"2026-05-05T09:00:00:Z","depth":"4","parameterNumber":2,"parameterNumberName":"U-component_of_CURRENTS"},"data":[0,0,0,-0.1582,-0.1585,-0.1697,-0.1698,-0.1742,-0.1742,0,0,0,0,0,0,0,0,0,0,0,-0.1544,-0.1545,-0.1582,-0.1585,-0.1697,-0.1698,-0.1742,-0.1742,0,0,0,0,0,0,0,0,0,0,0,-0.1544,-0.1545,-0.1546,-0.1585,-0.1697,-0.1698,-0.1742,-0.1681,0,0,0,0,0,0,0,0,0,0,-0.1584,-0.1569,-0.1545,-0.1546,-0.1586,-0.1697,-0.1698,-0.1679,-0.1685,-0.1664,0,-0.169,0,-0.1716,-0.1743,-0.1743,0,0,0,-0.1582,-0.1564,-0.1591,-0.1546,-0.1587,-0.1697,-0.1646,-0.1683,-0.1689,-0.167,-0.1691,-0.1694,-0.1717,-0.1743,-0.1743,-0.1777,-0.1777,0,0,-0.1576,-0.1565,-0.1587,-0.1595,-0.1626,-0.1642,-0.1649,-0.1688,-0.1698,-0.1691,-0.1695,-0.1717,-0.1743,-0.1743,-0.1776,-0.1777,0,0,0,-0.156,-0.156,-0.1588,-0.1592,-0.1621,-0.1646,-0.1654,-0.1697,-0.1706,-0.1696,-0.1718,-0.1743,-0.1744,-0.1776,-0.1776,-0.1802,0,0,0,-0.1556,-0.1551,-0.1586,-0.158,-0.1621,-0.1675,-0.1661,-0.1703,-0.1709,-0.1718,-0.1743,-0.1744,-0.1776,-0.1776,-0.1801,-0.1775,0,0,0,-0.1538,-0.1549,-0.1565,-0.1579,-0.1629,-0.1675,-0.1687,-0.1706,-0.1721,-0.1743,-0.1744,-0.1776,-0.1776,-0.18,-0.1774,-0.1698,0,0,0,-0.1517,-0.1544,-0.1565,-0.1604,-0.1628,-0.169,-0.1688,-0.1738,-0.1762,-0.1744,-0.1776,-0.1776,-0.1799,-0.1773,-0.1699,-0.1469,0,0,0,-0.1534,-0.1546,-0.1567,-0.1589,-0.1646,-0.1674,-0.1732,-0.1763,-0.1759,-0.1754,-0.1756,-0.1801,-0.1774,-0.1698,-0.1508,0,0,0,0,-0.1561,-0.1578,-0.16,-0.1643,-0.1687,-0.173,-0.1773,-0.1784,-0.1805,-0.1777,-0.1806,-0.1787,-0.1739,-0.1609,-0.1779,-0.1779,-0.1779,-0.1779,-0.1779,-0.1554,-0.1586,-0.1625,-0.1673,-0.1713,-0.1775,-0.1798,-0.1816,-0.1826,-0.184,-0.1814,-0.1779,-0.1648,-0.184,-0.184,-0.184,-0.184,-0.1841,-0.1841,-0.1562,-0.1569,-0.1633,-0.1685,-0.1735,-0.1785,-0.182,-0.1836,-0.1813,-0.1844,-0.1796,-0.1655,-0.1843,-0.1843,-0.1842,-0.1842,-0.1842,-0.1842,-0.1842,-0.1529,-0.1531,-0.1596,-0.1649,-0.1703,-0.176,-0.1706,-0.1761,-0.1799,-0.1778,-0.1574,-0.1756,-0.1742,-0.1738,-0.1738,-0.1737,-0.1737,-0.1737,-0.1736,-0.1444,-0.1506,-0.1489,-0.1584,-0.1578,-0.1586,-0.1614,-0.157,-0.1626,-0.1538,-0.1751,-0.1742,-0.1745,-0.1734,-0.173,-0.1731,-0.1732,-0.1733,-0.1733,-0.1305,-0.1347,-0.1311,-0.1304,-0.1298,-0.1307,-0.1378,-0.1301,-0.1232,-0.1176,-0.139,-0.1409,-0.1352,-0.1363,-0.1336,-0.1214,-0.1211,-0.1208,0,-0.115,-0.1195,-0.1086,-0.1025,-0.0971,-0.1096,-0.0961,-0.0975,-0.105,-0.1044,-0.1232,-0.1477,-0.1489,-0.1431,-0.1437,-0.1406,0,0,0,-0.0965,-0.0998,-0.086,-0.0893,-0.082,-0.0835,-0.092,-0.0861,-0.1092,-0.0938,-0.1131,-0.1151,-0.1445,-0.1711,-0.1666,-0.167,-0.1647,0,0]},{"header":{"parameterUnit":"m.s-1","parameterCategory":2,"la1":30.2992,"la2":30.254,"lo1":-89.0895,"lo2":-89.0443,"dy":0.0025,"dx":0.0025,"nx":19,"ny":19,"refTime":"2026-05-05T09:00:00:Z","depth":"4","parameterNumber":3,"parameterNumberName":"V-component_of_CURRENTS"},"data":[0,0,0,-0.0335,-0.0334,-0.0309,-0.0309,-0.0229,-0.0228,0,0,0,0,0,0,0,0,0,0,0,-0.0345,-0.0345,-0.0335,-0.0334,-0.0309,-0.0309,-0.0229,-0.0228,0,0,0,0,0,0,0,0,0,0,0,-0.0345,-0.0345,-0.0345,-0.0334,-0.0309,-0.0309,-0.0229,-0.0258,0,0,0,0,0,0,0,0,0,0,-0.0288,-0.0312,-0.0345,-0.0345,-0.0334,-0.0309,-0.0309,-0.026,-0.0256,-0.0229,0,-0.0233,0,-0.023,-0.0222,-0.0222,0,0,0,-0.0326,-0.0315,-0.0305,-0.0345,-0.0334,-0.0309,-0.0318,-0.0258,-0.0254,-0.0224,-0.0232,-0.023,-0.0229,-0.0222,-0.0222,-0.014,-0.014,0,0,-0.0328,-0.034,-0.0308,-0.0303,-0.0336,-0.0319,-0.0317,-0.0256,-0.0257,-0.0232,-0.0228,-0.0228,-0.0221,-0.0221,-0.014,-0.014,0,0,0,-0.0337,-0.0341,-0.0333,-0.0306,-0.0305,-0.0318,-0.0317,-0.0259,-0.0256,-0.0227,-0.0227,-0.0221,-0.022,-0.0141,-0.014,-0.0233,0,0,0,-0.0338,-0.0347,-0.0334,-0.034,-0.0307,-0.029,-0.0321,-0.026,-0.0253,-0.0227,-0.0221,-0.0219,-0.0141,-0.014,-0.0231,-0.0316,0,0,0,-0.0345,-0.0347,-0.0347,-0.0341,-0.0333,-0.0291,-0.0284,-0.0259,-0.0253,-0.0222,-0.0219,-0.0141,-0.0141,-0.023,-0.0311,-0.0399,0,0,0,-0.0354,-0.0357,-0.0347,-0.0351,-0.0333,-0.0316,-0.0285,-0.0268,-0.0245,-0.022,-0.0141,-0.014,-0.0229,-0.0308,-0.0395,-0.0364,0,0,0,-0.0361,-0.0358,-0.0359,-0.035,-0.0355,-0.0319,-0.0318,-0.0277,-0.0222,-0.0157,-0.0155,-0.0232,-0.0311,-0.0398,-0.0326,0,0,0,0,-0.0363,-0.0372,-0.0369,-0.0373,-0.0352,-0.0366,-0.0309,-0.0283,-0.0237,-0.0207,-0.0193,-0.024,-0.0293,-0.0259,-0.0137,-0.0137,-0.0137,-0.0138,-0.0138,-0.0396,-0.0391,-0.0414,-0.0413,-0.0407,-0.0385,-0.0392,-0.0342,-0.0259,-0.0246,-0.0285,-0.0378,-0.0338,-0.0225,-0.0225,-0.0225,-0.0226,-0.0226,-0.0226,-0.0441,-0.0476,-0.0475,-0.05,-0.0506,-0.0504,-0.0469,-0.0433,-0.043,-0.033,-0.0375,-0.0319,-0.0234,-0.0233,-0.0232,-0.0231,-0.023,-0.0229,-0.0229,-0.0487,-0.0514,-0.0525,-0.0594,-0.0636,-0.0616,-0.0689,-0.0631,-0.0545,-0.0585,-0.0542,-0.0463,-0.0494,-0.0593,-0.0594,-0.0595,-0.0595,-0.0596,-0.0596,-0.0552,-0.0567,-0.067,-0.071,-0.0784,-0.083,-0.0831,-0.0838,-0.0759,-0.0676,-0.062,-0.0503,-0.0491,-0.0514,-0.0608,-0.0606,-0.0604,-0.0603,-0.0602,-0.0666,-0.0684,-0.0819,-0.0913,-0.1044,-0.1054,-0.1051,-0.0965,-0.0991,-0.0934,-0.0724,-0.0715,-0.0698,-0.0682,-0.0711,-0.0867,-0.0867,-0.0867,0,-0.0775,-0.0783,-0.0976,-0.1122,-0.1228,-0.1194,-0.1183,-0.1123,-0.0998,-0.096,-0.1026,-0.0795,-0.0783,-0.0767,-0.0752,-0.0789,0,0,0,-0.0913,-0.0928,-0.1071,-0.1158,-0.1289,-0.1203,-0.1155,-0.1108,-0.0985,-0.0965,-0.0869,-0.0869,-0.0772,-0.0642,-0.0595,-0.058,-0.0616,0,0]}]]